STARLINK-2013 (47636 NORAD) Tracking and Keplerian Element Data

This shows tracking and keplerian element data for the satellite.

Feedback or suggestion? Click here.




ElementValue
Catalog47636
NameSTARLINK-2013
Epoch Orbit1005
Epoch Day106.13288524
Epoch Year2021
RAAN169.1024
Inclination53.0465
Eccentricity0.0006512
Argument of Perigee257.5518
Mean Anonmoly102.4764
Mean Motion15.56208965
Decay Rate-0.00227939
L11 47636U 21012S 21106.13288524 -.00227939 00000-0 -32746-2 0 9993
L22 47636 53.0465 169.1024 0006512 257.5518 102.4764 15.56208965 10058

Live tracking and technical data element details for STARLINK-2013 (NORAD 47636). STARLINK-2013 can be tracked NOW for your location showing map with azimuth and elevation plus other details from your city location.

Track the satellite on the map from your city or location and see movement details for azimuth, elevation, latitude, longitude, range, height, and movement on the map or in text.







IsCatalogInMostPopularTable: catalog: 47636, numindb: 17
Update: records affected: 1



GetName: 47636 STARLINK-2013

Hit Count: updated at: Fri, 16 Apr 2021 10:49:08 GMT